Wind_Speed
22 22 23 23 23 23 22 20 19 18 18 18 19 19 19 20 21 22 23 24 25 24 24 23 23 23 23 23 23 24 27 29 32 34 34 35 37 37 37 39 40 39
23 24 24 25 25 25 25 24 22 20 19 18 19 19 19 19 20 21 23 24 25 26 25 25 25 24 24 23 23 23 24 26 30 33 34 34 37 38 38 38 40 41
26 27 27 27 27 27 28 27 25 23 21 20 19 19 19 19 20 21 22 24 25 26 26 26 26 25 24 24 23 22 23 24 27 31 33 33 35 37 38 38 39 40
29 30 30 30 30 30 31 30 29 26 24 22 21 20 20 20 19 20 21 22 24 26 27 27 26 25 24 24 23 22 22 22 25 29 32 32 33 36 38 37 37 38
30 32 33 33 33 33 33 33 32 30 27 24 23 21 21 21 20 20 20 21 23 24 26 27 26 26 25 24 24 23 23 22 23 27 31 31 31 34 37 37 37 38
30 31 33 34 35 35 35 35 34 33 29 26 24 23 22 21 21 21 21 21 22 22 24 26 26 26 26 26 25 25 24 24 22 24 29 30 29 31 33 36 37 38
27 29 31 32 34 36 36 36 36 35 33 29 26 24 23 22 22 22 23 23 23 23 23 24 25 26 26 26 26 25 25 24 23 23 27 31 30 30 31 34 36 38
25 26 27 29 31 33 35 37 37 36 35 32 29 26 24 23 23 23 24 24 24 24 24 24 24 24 25 25 26 26 25 24 23 23 26 30 31 31 31 32 35 38
23 23 23 25 27 30 32 34 36 36 36 35 32 29 26 24 23 23 24 25 25 25 25 24 24 24 24 24 25 26 26 25 23 23 25 28 31 31 31 32 32 35
21 21 21 21 24 26 28 30 32 34 35 35 34 31 29 26 24 23 23 24 25 26 26 26 25 24 24 24 25 25 26 25 25 24 23 26 29 30 31 32 31 32
21 21 20 20 20 23 24 25 27 30 32 34 33 32 31 29 27 24 23 23 24 25 25 26 25 25 25 24 24 25 26 26 26 25 23 23 26 28 30 33 34 33
21 21 21 20 18 18 20 21 23 25 28 30 31 32 31 30 29 27 25 22 22 23 24 24 25 24 24 24 23 23 24 25 25 26 24 23 23 25 28 32 35 36
20 20 20 20 18 16 15 16 19 21 23 26 28 29 29 30 29 29 27 24 22 22 22 22 23 23 23 22 22 22 22 23 23 24 24 24 23 23 25 28 32 37
19 19 19 18 18 16 14 13 14 17 19 21 23 25 27 28 28 29 29 27 24 22 21 21 22 22 22 22 22 22 22 21 21 21 22 23 23 23 23 25 28 32
18 18 17 17 16 16 14 13 13 15 16 18 20 22 23 25 27 28 29 28 27 25 23 21 21 21 22 22 22 22 22 21 21 20 21 22 22 22 22 23 25 28
17 17 16 16 15 14 14 14 14 14 15 16 17 18 20 22 25 27 28 28 28 27 25 23 22 22 21 22 22 22 22 22 21 21 21 21 22 22 22 21 23 25
18 17 16 15 15 14 13 13 14 14 15 15 15 16 17 19 22 25 27 28 28 27 27 25 24 23 22 22 22 22 22 22 22 22 21 22 22 22 21 21 21 23
19 18 17 16 14 14 13 13 13 14 14 15 15 15 15 17 19 22 25 27 28 28 27 27 26 25 24 23 23 22 23 22 23 23 23 22 22 22 22 20 20 22
20 18 17 16 15 13 13 13 13 13 14 14 15 15 15 16 17 19 22 24 27 28 28 28 28 27 26 25 24 24 24 24 24 24 24 23 22 22 22 21 20 20
19 18 17 17 15 13 12 13 14 14 14 14 14 15 15 16 17 18 20 22 24 26 28 28 28 28 28 27 27 26 25 25 25 25 25 25 24 23 23 22 20 20
17 16 17 17 15 14 12 11 12 14 15 15 15 15 15 16 17 18 19 20 22 24 26 28 28 29 29 29 28 28 27 27 27 27 27 26 25 24 24 23 21 21
15 15 16 16 15 14 13 11 10 11 14 16 16 17 17 17 17 17 18 19 21 22 24 26 27 28 29 30 30 30 29 29 29 29 28 28 27 25 24 24 23 21
13 13 14 15 15 14 14 12 9 8 10 13 15 16 17 17 17 18 18 19 20 21 22 23 25 26 27 29 30 30 30 30 30 30 29 28 27 26 25 25 25 23
11 10 12 14 15 14 14 13 10 8 6 7 10 13 15 16 16 17 18 19 20 21 22 23 23 24 26 27 28 29 29 30 30 30 29 28 27 26 25 25 25 25
10 9 11 13 14 14 13 12 11 8 6 5 5 7 10 12 13 14 15 17 18 19 21 22 23 24 25 26 27 28 28 29 29 29 28 28 27 26 25 26 26 25
10 8 9 11 13 13 13 12 11 8 6 5 4 4 6 7 8 9 11 13 15 17 18 20 21 23 24 25 26 27 28 28 28 28 27 27 26 26 25 25 25 24
Wind_Direction
263 264 265 266 266 265 264 263 264 263 258 250 245 242 242 241 240 239 239 237 234 232 232 236 240 244 246 247 247 245 241 237 235 232 230 227 226 227 229 227 225 222
264 263 264 265 266 265 264 263 262 262 260 257 251 247 245 244 241 238 238 238 235 234 234 238 241 243 244 245 246 248 247 243 238 235 232 230 227 227 229 229 227 225
265 263 262 261 261 262 263 263 261 260 260 259 256 252 249 248 244 240 239 238 237 236 236 238 241 242 241 241 244 247 249 247 241 236 233 232 230 228 229 230 229 228
265 263 261 259 258 257 258 260 260 259 258 259 259 256 253 252 250 246 243 241 239 238 238 239 240 240 240 240 242 245 250 250 244 236 233 232 231 229 228 229 229 229
267 264 261 259 257 255 255 255 257 257 257 257 258 257 256 256 255 253 249 246 243 240 239 239 239 240 240 240 242 244 249 251 246 238 234 234 232 231 229 228 228 228
273 268 264 260 257 255 253 253 253 254 254 253 254 255 256 257 258 257 254 251 248 245 241 240 239 239 240 240 241 243 246 249 248 240 235 233 232 232 231 230 229 229
282 275 269 264 259 256 253 252 251 251 251 250 249 250 252 254 256 256 255 253 252 250 246 243 241 240 239 239 239 241 243 246 247 242 234 232 232 233 232 231 230 229
295 285 275 267 262 257 253 251 250 249 249 248 247 245 246 249 251 253 253 252 252 251 249 246 243 242 241 241 241 241 241 243 244 241 235 232 232 233 231 230 231 230
308 299 286 273 265 260 255 250 249 247 247 247 246 244 242 243 246 249 250 250 250 249 248 246 244 243 243 244 244 243 242 242 243 243 240 236 235 234 231 229 231 232
321 314 302 285 272 265 259 253 248 246 245 244 244 244 242 240 241 244 247 248 248 248 247 245 244 244 244 246 246 245 244 242 241 243 244 244 242 241 238 233 231 231
324 323 316 302 285 273 266 259 251 246 243 242 242 242 242 240 239 239 242 245 246 246 245 244 244 244 245 246 246 246 245 243 241 242 244 246 247 247 245 240 237 234
321 322 321 316 303 285 273 264 255 247 243 242 241 240 240 239 238 237 238 241 244 245 244 243 243 243 244 245 245 245 245 244 243 243 243 245 248 250 249 246 243 241
316 317 318 318 314 302 283 267 257 249 244 242 241 239 238 237 237 237 237 238 242 245 244 242 242 243 243 243 243 244 245 245 244 244 244 244 247 251 253 252 248 244
311 312 313 314 312 306 293 275 259 251 247 244 243 241 238 235 234 235 236 237 239 243 245 243 242 242 242 243 244 245 246 247 246 244 244 243 245 250 254 254 251 246
314 310 307 307 306 302 293 280 266 256 251 248 246 244 241 237 232 232 234 236 238 241 244 245 244 243 243 243 245 247 249 250 250 249 247 245 245 248 254 255 253 248
320 315 308 302 299 296 289 280 269 260 255 251 248 245 243 240 235 231 231 233 236 239 242 244 245 245 244 245 246 247 250 251 253 252 251 249 247 247 252 257 255 248
321 320 317 308 296 288 284 278 269 261 255 251 248 245 243 241 238 234 231 231 233 236 239 242 244 245 245 246 247 248 250 252 254 254 254 252 250 250 252 258 259 252
319 319 321 317 304 286 276 272 268 261 255 251 247 244 242 241 239 237 234 232 232 234 236 239 241 243 244 245 247 249 250 252 254 255 256 255 252 252 252 256 260 255
317 318 321 321 315 299 277 264 260 258 255 251 247 244 241 240 238 238 237 235 234 234 235 237 238 240 242 244 245 247 249 251 253 254 256 256 253 252 251 253 257 250
317 320 323 323 322 316 296 270 255 250 249 248 247 244 241 238 237 236 236 236 236 236 236 237 238 238 240 242 243 244 246 249 252 253 254 255 254 253 250 251 252 243
320 323 327 327 328 327 318 295 267 251 243 241 241 241 239 236 234 234 234 235 236 237 238 239 239 239 239 240 241 242 243 246 249 251 252 254 254 252 249 248 249 242
321 324 329 330 331 332 331 321 293 264 248 240 238 238 237 236 234 233 233 234 235 236 238 239 240 240 240 240 241 241 241 242 245 247 249 251 252 251 248 247 247 243
320 324 331 334 333 332 334 335 326 297 266 247 240 238 237 236 236 236 235 236 236 237 238 239 240 241 241 241 241 241 240 240 241 243 246 248 250 249 247 245 245 245
320 323 333 337 335 331 331 336 338 333 311 274 250 242 240 238 237 238 239 239 239 240 241 241 242 242 242 242 242 241 241 241 240 241 243 246 248 248 244 241 242 244
323 322 332 336 336 332 330 333 337 337 333 316 281 255 246 243 240 240 242 243 243 244 244 244 244 243 242 242 243 242 242 242 242 242 243 244 246 245 242 238 237 240
327 320 326 333 335 333 331 332 335 334 329 318 301 275 259 254 250 247 247 248 249 249 249 249 247 246 244 243 242 242 243 243 243 243 243 244 245 244 240 235 234 237
Height
5746 5746 5746 5746 5746 5746 5746 5746 5747 5748 5749 5750 5750 5751 5752 5753 5754 5755 5756 5757 5758 5760 5761 5762 5763 5764 5765 5767 5768 5769 5770 5771 5772 5773 5776 5778 5780 5782 5785 5788 5790 5792
5743 5743 5743 5743 5743 5743 5743 5743 5744 5744 5745 5746 5747 5747 5748 5749 5750 5751 5752 5754 5755 5756 5757 5758 5759 5761 5762 5763 5764 5765 5766 5767 5768 5770 5773 5775 5776 5779 5781 5784 5787 5789
5740 5739 5739 5740 5740 5740 5739 5740 5740 5741 5741 5742 5743 5744 5745 5746 5747 5748 5749 5750 5751 5752 5754 5755 5756 5757 5758 5759 5760 5762 5763 5764 5765 5767 5770 5772 5774 5776 5778 5780 5784 5787
5736 5735 5735 5736 5736 5736 5736 5736 5737 5737 5738 5739 5740 5741 5742 5742 5743 5744 5745 5746 5748 5749 5750 5751 5752 5754 5755 5756 5757 5758 5760 5761 5762 5764 5766 5768 5771 5773 5774 5777 5780 5784
5731 5731 5731 5731 5731 5731 5731 5732 5733 5734 5734 5735 5736 5737 5738 5739 5740 5741 5742 5743 5744 5745 5747 5748 5749 5750 5751 5753 5754 5755 5756 5758 5759 5760 5762 5764 5767 5769 5771 5774 5776 5779
5727 5726 5726 5726 5726 5726 5727 5728 5729 5729 5730 5731 5732 5734 5735 5736 5736 5737 5738 5739 5740 5742 5743 5744 5745 5747 5748 5749 5751 5752 5753 5754 5755 5757 5758 5761 5763 5765 5768 5771 5773 5775
5722 5722 5721 5721 5720 5721 5722 5723 5724 5725 5726 5728 5729 5730 5731 5732 5733 5734 5735 5736 5737 5738 5740 5741 5742 5743 5744 5746 5747 5749 5750 5751 5752 5753 5755 5757 5760 5762 5764 5767 5769 5771
5718 5717 5716 5715 5715 5715 5716 5717 5719 5720 5722 5724 5725 5726 5727 5729 5730 5731 5731 5732 5733 5735 5736 5737 5738 5740 5741 5742 5744 5746 5747 5749 5750 5751 5751 5753 5755 5758 5759 5762 5764 5766
5715 5713 5711 5710 5710 5710 5711 5712 5714 5715 5717 5719 5721 5722 5724 5725 5726 5728 5728 5729 5730 5731 5733 5734 5735 5737 5738 5739 5740 5742 5744 5745 5746 5747 5748 5749 5751 5753 5755 5757 5760 5762
5712 5710 5708 5707 5706 5706 5706 5707 5709 5710 5712 5714 5716 5718 5720 5721 5723 5724 5725 5726 5727 5728 5730 5731 5732 5733 5735 5736 5737 5738 5740 5742 5743 5744 5745 5747 5748 5749 5751 5753 5755 5758
5710 5708 5706 5704 5703 5702 5703 5703 5704 5706 5708 5710 5712 5714 5716 5718 5720 5721 5722 5723 5724 5725 5726 5728 5729 5730 5732 5733 5734 5735 5737 5738 5740 5741 5743 5744 5745 5746 5748 5749 5751 5753
5708 5706 5705 5703 5701 5700 5700 5700 5701 5702 5704 5705 5707 5709 5711 5714 5716 5718 5719 5720 5721 5722 5723 5725 5726 5727 5729 5730 5731 5732 5734 5735 5737 5738 5740 5741 5742 5743 5744 5745 5747 5749
5707 5705 5703 5701 5700 5698 5697 5697 5698 5699 5700 5702 5704 5705 5707 5709 5712 5714 5716 5717 5718 5719 5720 5722 5723 5724 5725 5727 5728 5729 5730 5732 5734 5735 5737 5738 5739 5740 5740 5741 5743 5745
5705 5703 5701 5700 5698 5697 5696 5696 5696 5696 5698 5699 5700 5702 5704 5706 5708 5710 5712 5714 5715 5716 5718 5719 5720 5721 5723 5724 5725 5726 5727 5729 5731 5732 5733 5735 5736 5737 5738 5738 5739 5741
5703 5702 5700 5698 5697 5696 5695 5694 5694 5695 5695 5697 5698 5699 5701 5702 5704 5706 5709 5711 5712 5714 5715 5716 5717 5718 5720 5721 5722 5723 5724 5726 5727 5729 5730 5732 5733 5734 5735 5735 5735 5737
5702 5700 5698 5697 5695 5694 5693 5693 5693 5693 5694 5695 5696 5697 5698 5699 5701 5703 5705 5707 5709 5711 5712 5713 5714 5715 5717 5718 5719 5720 5721 5723 5724 5725 5727 5728 5729 5731 5731 5732 5732 5732
5700 5699 5697 5695 5693 5692 5692 5691 5691 5691 5692 5692 5693 5694 5695 5697 5698 5700 5701 5704 5706 5707 5709 5710 5711 5712 5714 5715 5716 5717 5718 5720 5721 5722 5723 5724 5725 5727 5728 5728 5728 5729
5699 5697 5695 5693 5692 5690 5690 5689 5689 5689 5690 5690 5691 5692 5693 5694 5695 5697 5698 5700 5702 5704 5706 5707 5708 5710 5711 5712 5713 5715 5716 5717 5718 5719 5720 5721 5722 5723 5724 5725 5725 5726
5697 5695 5693 5692 5690 5689 5688 5687 5687 5687 5688 5688 5689 5690 5691 5692 5693 5694 5695 5697 5699 5700 5702 5704 5705 5706 5708 5709 5711 5712 5713 5714 5715 5716 5717 5718 5719 5720 5721 5721 5722 5723
5695 5693 5691 5690 5688 5687 5686 5685 5685 5685 5686 5686 5687 5688 5689 5689 5690 5691 5693 5694 5696 5697 5699 5700 5702 5703 5705 5706 5707 5709 5710 5711 5712 5713 5713 5715 5716 5717 5717 5718 5719 5720
5693 5692 5690 5688 5687 5685 5684 5683 5683 5683 5684 5684 5685 5686 5686 5687 5688 5689 5690 5692 5693 5694 5696 5697 5698 5700 5701 5702 5704 5705 5706 5708 5709 5710 5710 5711 5712 5713 5714 5715 5716 5718
5692 5691 5689 5687 5686 5684 5683 5682 5682 5681 5681 5682 5682 5683 5684 5685 5686 5687 5688 5689 5690 5692 5693 5694 5695 5696 5698 5699 5700 5701 5703 5704 5705 5706 5707 5708 5709 5710 5711 5712 5713 5715
5691 5690 5688 5686 5685 5684 5683 5682 5681 5680 5680 5680 5680 5681 5682 5683 5684 5685 5686 5687 5688 5689 5690 5691 5692 5693 5694 5695 5697 5698 5699 5700 5702 5703 5704 5704 5705 5706 5708 5709 5710 5711
5690 5689 5687 5686 5685 5683 5682 5681 5680 5679 5679 5679 5679 5679 5680 5681 5682 5683 5684 5684 5685 5686 5687 5688 5689 5690 5691 5692 5693 5694 5695 5697 5698 5699 5700 5701 5702 5703 5704 5705 5707 5708
5689 5688 5687 5686 5684 5683 5682 5681 5680 5679 5679 5678 5678 5678 5679 5679 5680 5681 5681 5682 5683 5683 5684 5684 5685 5686 5687 5689 5690 5691 5692 5693 5694 5695 5696 5698 5699 5700 5701 5702 5703 5705
5688 5687 5686 5685 5684 5683 5682 5681 5680 5679 5678 5678 5678 5678 5678 5678 5679 5679 5680 5680 5680 5681 5681 5681 5682 5683 5684 5685 5686 5687 5688 5689 5690 5691 5693 5694 5695 5696 5698 5699 5700 5702